FW4468 Weather Reports


time (UTC)temp
F
wind
direction
speed
knots
gust
knots
rain 1hr
in
rain 24hr
in
rain mn
in
humidity
%
barometer
mb
20260902093020 58 150 0.0 6.1 0.00 0.00 0.00 68 1007.5
20260902091512 59 152 0.9 6.1 0.00 0.00 0.00 68 1007.6
20260902090011 59 170 0.0 7.0 0.00 0.00 0.00 67 1007.9
20260902084518 59 134 0.0 7.0 0.00 0.00 0.00 66 1008.0
20260902083009 59 119 0.0 4.3 0.00 0.00 0.00 67 1008.2
20260902081507 59 185 0.0 7.0 0.00 0.00 0.00 67 1008.2
20260902080006 59 150 0.9 7.0 0.00 0.00 0.00 67 1008.2
20260902074504 59 179 0.9 7.0 0.00 0.00 0.00 67 1008.2
20260902073002 59 171 0.9 8.7 0.00 0.00 0.00 66 1007.9
20260902071502 60 178 0.9 7.8 0.00 0.00 0.00 66 1007.9
20260902070058 60 76 0.9 6.1 0.00 0.00 0.00 67 1007.8
20260902064558 60 107 0.0 8.7 0.00 0.00 0.00 66 1007.9
20260902063058 60 169 0.9 7.8 0.00 0.00 0.00 66 1007.8
20260902060100 60 144 0.0 5.2 0.00 0.00 0.00 67 1008.0
20260902054610 60 53 0.0 4.3 0.00 0.00 0.00 66 1008.1
20260902053104 60 138 0.9 6.1 0.00 0.00 0.00 66 1008.3
20260902051553 61 154 0.9 4.3 0.00 0.00 0.00 65 1008.3
20260902050056 61 36 0.0 5.2 0.00 0.00 0.00 65 1008.5
20260902044554 61 238 0.0 6.1 0.00 0.00 0.00 64 1008.4
20260902043053 61 142 0.0 4.3 0.00 0.00 0.00 63 1008.4
20260902041553 62 74 0.9 7.0 0.00 0.00 0.00 63 1008.5
20260902040053 62 150 0.0 7.0 0.00 0.00 0.00 62 1008.5
20260902034553 63 241 0.0 6.1 0.00 0.00 0.00 61 1008.5
20260902033051 64 195 2.6 7.8 0.00 0.00 0.00 59 1008.4
20260902031550 64 46 0.9 6.1 0.00 0.00 0.00 59 1008.3
20260902030049 64 160 0.9 8.7 0.00 0.00 0.00 58 1008.1
20260902024548 65 248 0.9 7.8 0.00 0.00 0.00 57 1008.0
20260902023104 65 182 1.7 6.1 0.00 0.00 0.00 57 1008.0
20260902021548 65 246 0.0 7.0 0.00 0.00 0.00 59 1008.1
20260902020047 66 173 0.0 7.0 0.00 0.00 0.00 58 1008.0
20260902014548 67 198 0.9 8.7 0.00 0.00 0.00 55 1008.1
20260902013053 67 207 0.9 3.5 0.00 0.00 0.00 56 1008.0
20260902011546 67 204 0.9 6.1 0.00 0.00 0.00 57 1008.0
20260902010046 67 94 0.9 9.6 0.00 0.00 0.00 57 1008.1
20260902004545 68 42 0.0 8.7 0.00 0.00 0.00 57 1008.0
20260902003045 67 196 0.0 8.7 0.00 0.00 0.00 57 1008.1
20260902001559 67 126 0.0 6.1 0.00 0.00 0.00 57 1008.0
20260902000045 67 85 0.9 6.1 0.00 0.00 0.00 56 1008.2
20260901234543 68 188 0.0 4.3 0.00 0.00 0.00 55 1008.0
20260901233041 69 142 0.9 7.0 0.00 0.00 0.00 54 1008.0
20260901231540 70 179 3.5 10.4 0.00 0.00 0.00 52 1008.0
20260901230041 70 153 1.7 6.1 0.00 0.00 0.00 52 1007.9
20260901224540 70 153 0.9 7.8 0.00 0.00 0.00 50 1007.9
20260901223047 70 300 1.7 7.8 0.00 0.00 0.00 52 1008.1
20260901221554 70 188 0.9 7.8 0.00 0.00 0.00 53 1008.1
20260901220040 71 113 2.6 9.6 0.00 0.00 0.00 51 1008.2
20260901214538 70 355 1.7 7.0 0.00 0.00 0.00 53 1008.3
20260901213038 70 194 1.7 7.0 0.00 0.00 0.00 53 1008.3
20260901211537 69 153 0.9 7.0 0.00 0.00 0.00 54 1008.4
20260901210038 70 173 3.5 7.8 0.00 0.00 0.00 51 1008.5
20260901204536 71 234 0.9 8.7 0.00 0.00 0.00 51 1008.4
20260901203037 71 240 3.5 9.6 0.00 0.00 0.00 50 1008.5
20260901201533 71 233 2.6 9.6 0.00 0.00 0.00 52 1008.5
20260901200038 70 240 2.6 7.0 0.00 0.00 0.00 53 1008.5
20260901194529 69 176 0.0 7.0 0.00 0.00 0.00 55 1008.7
20260901193028 69 213 1.7 7.0 0.00 0.00 0.00 55 1008.8
20260901191627 69 246 2.6 7.8 0.00 0.00 0.00 55 1008.8
20260901190024 68 223 2.6 9.6 0.00 0.00 0.00 56 1008.9
20260901184523 68 181 2.6 7.8 0.00 0.00 0.00 56 1009.0
20260901183019 67 165 2.6 7.8 0.00 0.00 0.00 59 1008.9
20260901181516 66 26 1.7 8.7 0.00 0.00 0.00 60 1008.9
20260901180016 65 140 0.9 7.0 0.00 0.00 0.00 62 1008.8
20260901174510 64 190 0.9 4.3 0.00 0.00 0.00 62 1008.8
20260901173007 63 203 1.7 6.1 0.00 0.00 0.00 63 1008.8
20260901171504 62 152 0.9 7.0 0.00 0.00 0.00 64 1008.8
20260901170004 62 140 0.9 4.3 0.00 0.00 0.00 64 1008.7
20260901164505 62 173 0.0 4.3 0.00 0.00 0.00 64 1008.6
20260901163059 62 239 1.7 7.0 0.00 0.00 0.00 64 1008.6
20260901161609 61 165 1.7 6.1 0.00 0.00 0.00 65 1008.5
20260901160108 61 166 0.9 8.7 0.00 0.00 0.00 65 1008.6
20260901154558 60 140 0.9 8.7 0.00 0.00 0.00 66 1008.7
20260901153053 60 161 1.7 7.0 0.00 0.00 0.00 67 1008.7
20260901151546 58 182 1.7 6.1 0.00 0.00 0.00 70 1008.9
20260901150043 57 160 0.0 2.6 0.00 0.00 0.00 77 1008.8
20260901144547 56 152 0.0 0.9 0.00 0.00 0.00 76 1008.9
20260901143046 55 152 0.0 0.0 0.00 0.00 0.00 74 1008.9
20260901141547 55 152 0.0 0.0 0.00 0.00 0.00 74 1009.0
20260901140039 54 152 0.0 1.7 0.00 0.00 0.00 74 1008.9
20260901134539 54 152 0.0 0.9 0.00 0.00 0.00 74 1008.7
20260901133037 54 152 0.0 3.5 0.00 0.00 0.00 76 1008.6
20260901131535 54 153 0.0 3.5 0.00 0.00 0.00 77 1008.5
20260901130033 53 205 0.0 2.6 0.00 0.00 0.00 77 1008.5
20260901124532 52 238 0.0 2.6 0.00 0.00 0.00 72 1008.4
20260901123032 52 276 0.0 0.0 0.00 0.00 0.00 70 1008.2
20260901121532 52 276 0.0 0.0 0.00 0.00 0.00 70 1008.2
20260901120031 52 276 0.0 0.0 0.00 0.00 0.00 71 1008.2
20260901114534 52 276 0.0 0.0 0.00 0.00 0.00 70 1008.2
20260901113027 52 276 0.0 0.0 0.00 0.00 0.00 70 1008.2
20260901111525 52 276 0.0 0.0 0.00 0.00 0.00 69 1008.2
20260901110025 52 276 0.0 0.0 0.00 0.00 0.00 69 1008.3
20260901104524 52 276 0.0 0.0 0.00 0.00 0.00 69 1008.4
20260901103023 52 276 0.0 0.0 0.00 0.00 0.00 68 1008.4
20260901101520 52 276 0.0 0.0 0.00 0.00 0.00 68 1008.6
20260901100018 53 276 0.0 0.0 0.00 0.00 0.00 68 1008.3
20260901094528 53 276 0.0 0.0 0.00 0.00 0.00 68 1008.3